CW1575 Weather Reports


Display with metric or nautical units.
time (UTC)temp
F
wind
direction
speed
MPH
gust
MPH
rain 1hr
in
rain 24hr
in
rain mn
in
humidity
%
barometer
mb
20260510082504 49 0 0.0 0.0 0.00 0.00 0.00 70 1013.6
20260510082006 49 0 0.0 0.0 0.00 0.00 0.00 70 1013.6
20260510081505 49 0 0.0 0.0 0.00 0.00 0.00 70 1013.6
20260510081005 49 0 0.0 0.0 0.00 0.00 0.00 70 1013.6
20260510080005 49 0 0.0 1.0 0.00 0.00 0.00 70 1013.6
20260510075505 49 0 0.0 0.0 0.00 0.00 0.00 70 1013.6
20260510075005 49 0 0.0 0.0 0.00 0.00 0.00 71 1013.7
20260510074505 49 0 0.0 0.0 0.00 0.00 0.00 71 1013.7
20260510074005 49 0 0.0 0.0 0.00 0.00 0.00 72 1013.7
20260510072505 49 0 0.0 1.0 0.00 0.00 0.00 74 1013.9
20260510072005 49 0 0.0 1.0 0.00 0.00 0.00 74 1013.8
20260510071504 49 0 0.0 0.0 0.00 0.00 0.00 74 1013.8
20260510071004 49 0 0.0 2.0 0.00 0.00 0.00 74 1013.8
20260510070505 49 0 0.0 1.0 0.00 0.00 0.00 73 1013.8
20260510070005 49 0 0.0 0.0 0.00 0.00 0.00 73 1013.7
20260510065505 49 0 0.0 1.0 0.00 0.00 0.00 73 1013.7
20260510064505 49 0 0.0 1.0 0.00 0.00 0.00 73 1013.8
20260510064005 49 0 0.0 1.0 0.00 0.00 0.00 73 1013.6
20260510063005 49 0 0.0 3.0 0.00 0.00 0.00 73 1013.6
20260510062504 49 0 1.0 3.0 0.00 0.00 0.00 73 1013.6
20260510062005 49 0 0.0 0.0 0.00 0.00 0.00 73 1013.6
20260510061504 49 0 0.0 0.0 0.00 0.00 0.00 73 1013.5
20260510061006 49 0 0.0 0.0 0.00 0.00 0.00 72 1013.6
20260510060006 49 0 0.0 1.0 0.00 0.00 0.00 72 1013.6
20260510055505 50 0 0.0 1.0 0.00 0.00 0.00 72 1013.4
20260510055005 50 0 0.0 1.0 0.00 0.00 0.00 72 1013.5
20260510054504 49 0 0.0 2.0 0.00 0.00 0.00 72 1013.4
20260510054005 49 0 0.0 1.0 0.00 0.00 0.00 72 1013.4
20260510053505 49 0 0.0 2.0 0.00 0.00 0.00 72 1013.4
20260510053005 50 0 1.0 2.0 0.00 0.00 0.00 72 1013.4
20260510052505 50 0 0.0 1.0 0.00 0.00 0.00 72 1013.3
20260510052005 50 0 0.0 1.0 0.00 0.00 0.00 72 1013.3
20260510051504 50 0 1.0 3.0 0.00 0.00 0.00 72 1013.4
20260510051005 50 0 2.0 3.0 0.00 0.00 0.00 72 1013.4
20260510050504 50 0 0.0 3.0 0.00 0.00 0.00 72 1013.7
20260510050005 50 0 0.0 1.0 0.00 0.00 0.00 72 1013.9
20260510045504 50 0 1.0 5.0 0.00 0.00 0.00 71 1013.9
20260510045004 50 0 1.0 6.0 0.00 0.00 0.00 71 1013.7
20260510044504 50 0 1.0 5.0 0.00 0.00 0.00 70 1013.6
20260510044005 50 0 2.0 8.0 0.00 0.00 0.00 70 1013.7
20260510043505 50 0 2.0 9.0 0.00 0.00 0.00 70 1013.6
20260510043005 50 0 1.0 3.0 0.00 0.00 0.00 70 1013.5
20260510042504 50 0 3.0 8.0 0.00 0.00 0.00 70 1013.7
20260510042005 51 0 1.0 5.0 0.00 0.00 0.00 70 1013.7
20260510041505 51 0 3.0 12.0 0.00 0.00 0.00 69 1013.5
20260510041004 51 0 3.0 12.0 0.00 0.00 0.00 68 1013.5
20260510040505 51 0 2.0 10.0 0.00 0.00 0.00 68 1013.5
20260510040005 51 0 2.0 12.0 0.00 0.00 0.00 68 1013.4
20260510035005 51 0 4.0 12.0 0.00 0.00 0.00 66 1013.0
20260510034504 51 0 5.0 15.0 0.00 0.00 0.00 66 1013.1
20260510034005 51 0 4.0 14.0 0.00 0.00 0.00 65 1013.2
20260510033504 51 0 6.0 13.0 0.00 0.00 0.00 65 1013.2
20260510033005 51 0 6.0 14.0 0.00 0.00 0.00 65 1013.1
20260510032504 51 0 4.0 8.0 0.00 0.00 0.00 66 1013.1
20260510032005 51 0 2.0 9.0 0.00 0.00 0.00 65 1013.1
20260510031004 52 0 5.0 12.0 0.00 0.00 0.00 66 1012.7
20260510030505 52 0 5.0 12.0 0.00 0.00 0.00 66 1012.4
20260510030005 52 0 4.0 16.0 0.00 0.00 0.00 66 1012.1
20260510025504 52 0 4.0 13.0 0.00 0.00 0.00 66 1011.7
20260510025005 52 0 5.0 12.0 0.00 0.00 0.00 66 1011.2
20260510024506 52 0 6.0 17.0 0.00 0.00 0.00 65 1010.9
20260510024005 53 0 7.0 20.0 0.00 0.00 0.00 65 1010.6
20260510023505 53 0 5.0 20.0 0.00 0.00 0.00 65 1010.4
20260510023005 53 0 12.0 22.0 0.00 0.00 0.00 64 1010.2
20260510022504 53 0 5.0 14.0 0.00 0.00 0.00 65 1009.7
20260510022004 54 0 10.0 18.0 0.00 0.00 0.00 64 1009.5
20260510021005 54 0 7.0 18.0 0.00 0.00 0.00 63 1009.0
20260510020504 55 0 10.0 23.0 0.00 0.00 0.00 62 1008.7
20260510015504 56 0 8.0 13.0 0.00 0.00 0.00 60 1008.1
20260510015005 56 0 10.0 20.0 0.00 0.00 0.00 58 1008.1
20260510014505 57 0 9.0 20.0 0.00 0.00 0.00 57 1008.1
20260510014004 58 0 10.0 16.0 0.00 0.00 0.00 55 1007.8
20260510013505 58 0 6.0 15.0 0.00 0.00 0.00 53 1007.4
20260510013005 59 0 7.0 20.0 0.00 0.00 0.00 51 1006.8
20260510012505 60 0 10.0 26.0 0.00 0.00 0.00 49 1006.7
20260510011004 64 0 9.0 21.0 0.00 0.00 0.00 43 1006.0
20260509194504 80 34 5.0 9.0 0.00 0.00 0.00 22 1002.5
20260509193503 79 344 2.0 7.0 0.00 0.00 0.00 21 1002.4
20260509193004 79 24 5.0 10.0 0.00 0.00 0.00 22 1002.4
20260509192504 79 0 5.0 12.0 0.00 0.00 0.00 23 1002.6
20260509192004 79 0 4.0 8.0 0.00 0.00 0.00 24 1002.6
20260509191504 79 0 1.0 5.0 0.00 0.00 0.00 23 1002.7
20260509191004 79 0 5.0 10.0 0.00 0.00 0.00 24 1002.8
20260509190504 78 0 3.0 9.0 0.00 0.00 0.00 24 1002.8
20260509190004 78 0 2.0 13.0 0.00 0.00 0.00 23 1002.9
20260509185504 78 0 8.0 15.0 0.00 0.00 0.00 23 1002.9
20260509185004 78 0 2.0 8.0 0.00 0.00 0.00 24 1003.2
20260509184504 77 0 2.0 8.0 0.00 0.00 0.00 24 1003.2
20260509184004 77 0 2.0 8.0 0.00 0.00 0.00 25 1003.2
20260509183504 77 0 4.0 10.0 0.00 0.00 0.00 25 1003.3
20260509183004 77 0 7.0 15.0 0.00 0.00 0.00 25 1003.3
20260509182503 77 0 7.0 16.0 0.00 0.00 0.00 25 1003.3
20260509182004 77 0 9.0 15.0 0.00 0.00 0.00 25 1003.2
20260509181505 78 0 2.0 6.0 0.00 0.00 0.00 25 1003.2
20260509181004 78 0 2.0 7.0 0.00 0.00 0.00 22 1003.2
20260509180004 78 62 1.0 7.0 0.00 0.00 0.00 21 1003.2
20260509175504 78 119 2.0 6.0 0.00 0.00 0.00 18 1003.2
20260509175004 79 13 2.0 8.0 0.00 0.00 0.00 19 1003.2
20260509174504 79 2 2.0 5.0 0.00 0.00 0.00 18 1003.3
20260509174004 79 60 2.0 7.0 0.00 0.00 0.00 20 1003.3
20260509173504 79 332 2.0 9.0 0.00 0.00 0.00 20 1003.3
20260509173004 78 0 2.0 9.0 0.00 0.00 0.00 20 1003.4
20260509172504 78 0 4.0 10.0 0.00 0.00 0.00 19 1003.3
20260509172003 78 0 2.0 6.0 0.00 0.00 0.00 20 1003.4
20260509171504 77 0 3.0 13.0 0.00 0.00 0.00 23 1003.4
20260509171004 77 0 3.0 10.0 0.00 0.00 0.00 21 1003.3
20260509170504 77 0 5.0 9.0 0.00 0.00 0.00 21 1003.5
20260509170004 77 0 2.0 9.0 0.00 0.00 0.00 20 1003.4
20260509164504 76 0 4.0 10.0 0.00 0.00 0.00 23 1003.6
20260509164004 76 0 3.0 10.0 0.00 0.00 0.00 22 1003.7
20260509163504 76 0 1.0 8.0 0.00 0.00 0.00 22 1003.7
20260509163004 76 5 1.0 3.0 0.00 0.00 0.00 24 1003.8
20260509162503 75 40 2.0 5.0 0.00 0.00 0.00 25 1003.7
20260509162004 75 0 2.0 5.0 0.00 0.00 0.00 22 1003.9
20260509161504 75 0 1.0 3.0 0.00 0.00 0.00 20 1003.9
20260509161004 74 337 3.0 12.0 0.00 0.00 0.00 21 1004.0
20260509160003 73 1 0.0 3.0 0.00 0.00 0.00 22 1004.1
20260509155504 72 216 1.0 6.0 0.00 0.00 0.00 20 1004.2
20260509155003 72 319 2.0 3.0 0.00 0.00 0.00 20 1004.1
20260509154504 71 0 0.0 2.0 0.00 0.00 0.00 23 1004.2
20260509153504 70 0 1.0 3.0 0.00 0.00 0.00 22 1004.1
20260509153004 69 0 3.0 8.0 0.00 0.00 0.00 23 1004.4
20260509152503 68 0 3.0 6.0 0.00 0.00 0.00 24 1004.5
20260509152004 67 0 2.0 8.0 0.00 0.00 0.00 25 1004.5
20260509151504 66 0 2.0 9.0 0.00 0.00 0.00 25 1004.5
20260509150504 63 0 2.0 10.0 0.00 0.00 0.00 28 1004.5
20260509150004 62 0 1.0 8.0 0.00 0.00 0.00 29 1004.5
20260509145504 62 0 1.0 6.0 0.00 0.00 0.00 30 1004.5
20260509145004 61 0 1.0 5.0 0.00 0.00 0.00 32 1004.6
20260509144504 60 0 1.0 9.0 0.00 0.00 0.00 34 1004.7
20260509144003 58 0 1.0 6.0 0.00 0.00 0.00 36 1004.8
20260509143504 57 0 2.0 6.0 0.00 0.00 0.00 37 1004.8
20260509143004 56 0 2.0 8.0 0.00 0.00 0.00 40 1004.8
20260509142504 54 0 3.0 12.0 0.00 0.00 0.00 44 1004.6
20260509142003 53 0 1.0 3.0 0.00 0.00 0.00 49 1004.6
20260509141503 52 0 1.0 3.0 0.00 0.00 0.00 52 1004.6
20260509141003 52 0 2.0 6.0 0.00 0.00 0.00 52 1004.6
20260509140504 51 0 1.0 3.0 0.00 0.00 0.00 63 1004.5
20260509140005 51 0 0.0 2.0 0.00 0.00 0.00 66 1004.5
20260509135504 51 0 0.0 0.0 0.00 0.00 0.00 66 1004.4
20260509135004 51 0 0.0 0.0 0.00 0.00 0.00 68 1004.4
20260509133503 50 0 0.0 0.0 0.00 0.00 0.00 66 1004.4
20260509133004 50 0 0.0 0.0 0.00 0.00 0.00 66 1004.3
20260509132503 50 0 1.0 2.0 0.00 0.00 0.00 65 1004.4
20260509131004 50 0 1.0 3.0 0.00 0.00 0.00 63 1004.3
20260509130503 50 0 0.0 0.0 0.00 0.00 0.00 62 1004.2
20260509124503 50 0 0.0 0.0 0.00 0.00 0.00 62 1004.0
20260509124004 51 0 0.0 0.0 0.00 0.00 0.00 61 1004.0
20260509123503 51 0 0.0 0.0 0.00 0.00 0.00 61 1004.0
20260509122504 51 0 0.0 0.0 0.00 0.00 0.00 59 1003.9
20260509121504 52 0 0.0 1.0 0.00 0.00 0.00 58 1003.9
20260509121003 52 0 0.0 1.0 0.00 0.00 0.00 57 1003.8
20260509120503 52 0 0.0 0.0 0.00 0.00 0.00 56 1003.9
20260509115505 53 0 0.0 2.0 0.00 0.00 0.00 54 1003.7
20260509115005 53 0 0.0 0.0 0.00 0.00 0.00 53 1003.5
20260509114505 53 0 0.0 1.0 0.00 0.00 0.00 52 1003.5
20260509114005 54 0 0.0 1.0 0.00 0.00 0.00 51 1003.5
20260509113505 54 0 0.0 0.0 0.00 0.00 0.00 50 1003.4
20260509112505 55 0 0.0 1.0 0.00 0.00 0.00 49 1003.2
20260509111505 55 0 0.0 1.0 0.00 0.00 0.00 49 1003.1
20260509111005 55 0 0.0 1.0 0.00 0.00 0.00 49 1003.2
20260509110505 55 0 1.0 3.0 0.00 0.00 0.00 48 1003.2
20260509110005 54 0 2.0 8.0 0.00 0.00 0.00 48 1003.1
20260509105504 54 0 2.0 5.0 0.00 0.00 0.00 46 1003.1
20260509105005 54 0 2.0 3.0 0.00 0.00 0.00 45 1003.1
20260509104505 53 0 1.0 9.0 0.00 0.00 0.00 45 1003.1
20260509104005 53 0 4.0 12.0 0.00 0.00 0.00 46 1003.1
20260509103005 51 0 2.0 5.0 0.00 0.00 0.00 48 1003.0
20260509102005 50 0 3.0 8.0 0.00 0.00 0.00 51 1003.0
20260509101505 49 0 1.0 3.0 0.00 0.00 0.00 54 1003.0
20260509101005 49 0 2.0 5.0 0.00 0.00 0.00 56 1003.1
20260509100504 49 0 2.0 3.0 0.00 0.00 0.00 59 1003.1
20260509100006 49 0 1.0 3.0 0.00 0.00 0.00 64 1003.1
20260509095005 49 0 1.0 5.0 0.00 0.00 0.00 71 1003.2
20260509094505 49 0 1.0 2.0 0.00 0.00 0.00 72 1003.2
20260509094005 49 0 0.0 3.0 0.00 0.00 0.00 72 1003.2
20260509093504 50 0 0.0 1.0 0.00 0.00 0.00 71 1003.2
20260509092504 50 0 0.0 0.0 0.00 0.00 0.00 69 1003.1
20260509092005 50 0 0.0 1.0 0.00 0.00 0.00 69 1003.1
20260509091505 50 0 0.0 0.0 0.00 0.00 0.00 68 1003.0
20260509091005 51 0 0.0 1.0 0.00 0.00 0.00 68 1002.9
20260509090005 51 0 0.0 1.0 0.00 0.00 0.00 67 1002.8
20260509085505 51 0 0.0 0.0 0.00 0.00 0.00 67 1002.7
20260509085005 51 0 0.0 0.0 0.00 0.00 0.00 67 1002.7
20260509084505 51 0 0.0 2.0 0.00 0.00 0.00 67 1002.8
20260509084005 51 0 1.0 3.0 0.00 0.00 0.00 67 1002.7